{"data":{"norad_id":87320,"epoch":"2026-05-23T04:03:08.211456Z","epoch_age_seconds":233415,"freshness":"STALE","line1":"1 87320U          26143.16884504  .00000870  00000+0  56020-3 0  9992","line2":"2 87320  66.5940  58.9586 0425468 311.7764  44.7660 13.70669091615866","mean_motion":13.70669091,"eccentricity":0.0425468,"inclination_deg":66.594,"raan_deg":58.9586,"arg_perigee_deg":311.7764,"mean_anomaly_deg":44.766,"bstar":0.0005602,"rev_number":61586,"period_min":105.05817993965,"perigee_km":683.3741636579,"apogee_km":1310.9655763304,"semimajor_km":7375.3068699942,"source":"CELESTRAK","updated_at":"2026-05-25T13:38:11.668544Z"}}